Location: Écuvilly
(49.6505°N, 2.9206°E)
Time: 07:08:52
(UTC+00:00)

Cosmos 1812 - Pass Details

Date: 17 November 2025
Orbit: 338 x 348 km, 82.5° (Epoch: 12 December)

Event Time Altitude Azimuth Distance (km) Brightness Sun altitude
Rises 17:23:41 0° 173° (S) 2,248 6.1 -13.0°
Reaches altitude 10° 17:25:43 10° 166° (SSE) 1,396 4.9 -13.3°
Maximum altitude 17:28:35 40° 95° (E) 571 2.4 -13.7°
Enters shadow 17:29:58 24° 40° (NE) 836 3.3 -14.0°
